Home > Weather > Netherlands > Zwolle > Past weeks

Flag for Netherlands Weather past 2 weeks in Zwolle, Netherlands

54 °F

Passing clouds.

Feels Like: 48 °F
Forecast: 50 / 52 °F
Wind: 21 mph from West

Location: Amsterdam Schiphol Airport

Current Time: Dec 1, 2015 at 6:00:02 PM

Latest Report: Dec 1, 2015 at 5:25 PM

Visibility: N/A

Pressure: 30.18 "Hg

Humidity: 88%

Dew point: 50 °F

Location of ZwolleLocation

Historic Weather in Zwolle — Graph


Zwolle temperature yesterday

Maximum temperature yesterday: 54 °F (at 6:25 PM)
Minimum temperature yesterday: 45 °F (at 4:25 AM)
Average temperature yesterday: 49 °F

Past Weeks' High & Low Weather Summary

High59 °F (Nov 17, 7:25 PM)100% (Nov 17, 3:25 AM)30.21 "Hg (Nov 17, 3:25 AM)
Low30 °F (Nov 23, 5:25 AM)57% (Nov 30, 5:55 AM)29.30 "Hg (Nov 21, 6:55 AM)
Average46 °F85%29.80 "Hg
* Reported Nov 16 4:25 PM — Dec 1 4:55 PM, Zwolle, Weather by CustomWeather, © 2015

Note: Actual official high and low records may vary slightly from our data, if they occured in-between our weather recording intervals... More about our weather records


Zwolle weather history for previous 24 hours

Time TempWeatherWind HumidityBarometerVisibility
4:55 PM
Tue, Dec 1
54 °FPassing clouds.18 mph88%30.15 "HgN/A
4:25 PM54 °FPassing clouds.20 mph94%30.15 "HgN/A
3:55 PM54 °FBroken clouds.18 mph94%30.15 "HgN/A
3:25 PM50 °FBroken clouds.10 mph100%30.15 "HgN/A
2:55 PM50 °FDrizzle. Partly sunny.10 mph100%30.15 "Hg3 mi
2:25 PM48 °FDrizzle. Broken clouds.10 mph100%30.18 "Hg1 mi
1:55 PM48 °FDrizzle. Broken clouds.12 mph100%30.18 "Hg1 mi
1:25 PM48 °FDrizzle. Mostly cloudy.10 mph100%30.18 "Hg3 mi
12:55 PM48 °FDrizzle. Partly sunny.8 mph100%30.18 "Hg4 mi
12:25 PM48 °FDrizzle. More clouds than sun.10 mph94%30.18 "Hg4 mi
11:55 AM48 °FDrizzle. Broken clouds.8 mph94%30.18 "HgN/A
11:25 AM48 °FDrizzle. Partly sunny.8 mph87%30.21 "HgN/A
10:55 AM48 °FDrizzle. Partly sunny.8 mph82%30.18 "HgN/A
10:25 AM46 °FPartly sunny.7 mph93%30.18 "HgN/A
9:55 AM46 °FPassing clouds.7 mph93%30.18 "HgN/A
8:55 AM45 °FPassing clouds.6 mph93%30.15 "HgN/A
7:55 AM45 °FPassing clouds.6 mph87%30.15 "HgN/A
7:25 AM45 °FPassing clouds.6 mph81%30.15 "HgN/A
6:55 AM43 °FPassing clouds.7 mph87%30.12 "HgN/A
6:25 AM45 °FPassing clouds.5 mph87%30.12 "HgN/A
5:55 AM45 °FPassing clouds.5 mph87%30.12 "HgN/A
4:55 AM45 °FPassing clouds.5 mph93%30.09 "HgN/A
4:25 AM46 °FPassing clouds.6 mph87%30.09 "HgN/A
3:55 AM46 °FPassing clouds.7 mph87%30.07 "HgN/A
3:25 AM46 °FPassing clouds.7 mph87%30.07 "HgN/A
2:55 AM46 °FPassing clouds.9 mph87%30.04 "HgN/A
1:55 AM46 °FPassing clouds.10 mph87%30.01 "HgN/A
12:55 AM46 °FPassing clouds.9 mph93%29.98 "HgN/A
12:25 AM46 °FPartly cloudy.10 mph100%29.98 "Hg4 mi
11:55 PM
Mon, Nov 30
48 °FPartly cloudy.12 mph94%29.95 "HgN/A
11:25 PM50 °FPassing clouds.15 mph88%29.92 "HgN/A
10:55 PM52 °FPartly cloudy.20 mph88%29.89 "HgN/A
10:25 PM54 °FPartly cloudy.24 mph94%29.86 "HgN/A
9:55 PM54 °FPartly cloudy.31 mph94%29.83 "Hg4 mi
9:25 PM54 °FPartly cloudy.29 mph94%29.80 "Hg4 mi
8:55 PM54 °FPartly cloudy.35 mph94%29.80 "Hg4 mi
8:25 PM54 °FPartly cloudy.33 mph94%29.77 "Hg4 mi
7:55 PM54 °FPartly cloudy.36 mph94%29.77 "Hg4 mi
7:25 PM54 °FPartly cloudy.35 mph94%29.77 "Hg4 mi
6:55 PM54 °FPartly cloudy.32 mph94%29.74 "Hg5 mi
6:25 PM54 °FLight rain. Partly cloudy.31 mph94%29.74 "Hg5 mi
Weather by CustomWeather, © 2015

See weather overviewHow to use our weather pages